Regional Weather Roundup
Issued by NWS

Home | Current Version | Previous Version | Text Only | Print | Product List | Glossary Off
Versions: 1 2 3 4 5 6 7 8 9 10 11 12 13 14 15 16 17 18 19 20 21 22 23 24 25 26 27 28 29 30 31 32 33 34 35 36 37 38 39 40 41 42 43 44 45 46 47 48 49 50

000
ASUS43 KMKX 062000
RWRWI

WISCONSIN REGIONAL WEATHER ROUNDUP
NATIONAL WEATHER SERVICE MILWAUKEE/SULLIVAN WI
200 PM CST SAT FEB 06 2016

NOTE: "FAIR" INDICATES FEW OR NO CLOUDS BELOW 12,000 FEET WITH NO
SIGNIFICANT WEATHER AND/OR OBSTRUCTIONS TO VISIBILITY.

WIZ001-002-006>008-014>016-023>028-062100-
NORTHWEST WISCONSIN

CITY           SKY/WX    TMP DP  RH WIND       PRES   REMARKS
SUPERIOR ARPT  CLOUDY    35  25  66 SW13      29.89F WCI  26
ASHLAND        CLOUDY    34  22  61 S13G21    29.91F WCI  25
HAYWARD        MOSUNNY   32  22  66 S14       29.93F WCI  22
SIREN          CLOUDY    34  24  66 S8        29.94F WCI  27
CUMBERLAND     CLOUDY    32  23  69 S13       29.96F WCI  22
RICE LAKE      CLOUDY    32  23  70 S14       30.00F WCI  22
CHETEK         CLOUDY    30  23  73 S12       30.00F WCI  21
LADYSMITH      SUNNY     32  23  68 S10       30.01F WCI  24
EAU CLAIRE     NOT AVBL
MENOMONIE      MOSUNNY   36  24  61 S8        30.03F WCI  30
NEW RICHMOND   MOSUNNY   32  25  73 S12       29.99F WCI  23
OSCEOLA        CLOUDY    34  26  71 S14       30.00F WCI  25
$$

WIZ003>005-009-010-017-018-062100-
NORTH CENTRAL WISCONSIN

CITY           SKY/WX    TMP DP  RH WIND       PRES   REMARKS
MANITOWISH WTR CLOUDY    28  20  74 S9        29.95F WCI  19
ARBOR VITAE    CLOUDY    32  23  71 S10       29.96F WCI  23
WOODRUFF       CLOUDY    32  23  71 S10       29.96F WCI  23
RHINELANDER    CLOUDY    28  20  71 SW10      29.98F WCI  19
EAGLE RIVER    CLOUDY    28  18  67 SW9       29.96F WCI  19
LAND O LAKES   CLOUDY    29  20  67 SW6       29.95F WCI  23
PHILLIPS       CLOUDY    29  21  71 S12       29.97F WCI  20
TOMAHAWK       CLOUDY    30  20  67 S5        30.01F WCI  25
MEDFORD        CLOUDY    29  22  75 SW12      30.01F WCI  19
MERRILL        CLOUDY    30  22  74 SW9       30.04F WCI  21
$$

WIZ029-030-035-036-043>047-062100-
CENTRAL WISCONSIN

CITY           SKY/WX    TMP DP  RH WIND       PRES   REMARKS
WAUSAU         CLOUDY    31  22  69 SW9       30.02F WCI  23
MOSINEE        PTSUNNY   30  25  80 SW9       30.05F WCI  22
MARSHFIELD     MOSUNNY   32  21  64 SW9       30.03F WCI  24
STEVENS POINT  CLOUDY    29  22  75 SW6       30.07F WCI  23
WAUPACA        CLOUDY    33  25  71 SW6       30.10S WCI  28
WAUTOMA        CLOUDY    34  27  75 SW10      30.10F WCI  26
WISC RAPIDS    CLOUDY    32  22  66 SW10      30.08F WCI  24
CAMP DOUGLAS   NOT AVBL
$$

WIZ011>013-019>022-031-037>040-048>050-062100-
NORTHEAST WISCONSIN

CITY           SKY/WX    TMP DP  RH WIND       PRES   REMARKS
ANTIGO         CLOUDY    27  22  81 SW10      30.02F WCI  17
SHAWANO        CLOUDY    32  25  74 SW9       30.08F WCI  24
OCONTO         CLOUDY    29  23  77 W9        30.08F WCI  21
STURGEON BAY   CLOUDY    28  21  74 W12       30.09F WCI  18
GREEN BAY      CLOUDY    30  24  78 W13       30.09F WCI  20
MANITOWOC      NOT AVBL
APPLETON       CLOUDY    30  23  74 SW9       30.08F WCI  22
CLINTONVILLE   CLOUDY    30  23  74 SW10      30.09F WCI  21
OSHKOSH        CLOUDY    31  24  75 SW8       30.10F HAZE    WCI  23
$$

WIZ032>034-041-042-053>061-062100-
SOUTHWEST WISCONSIN

CITY           SKY/WX    TMP DP  RH WIND       PRES   REMARKS
LA CROSSE      SUNNY     32  24  72 SW14      30.10F WCI  22
SPARTA         SUNNY     35  24  66 S8        30.10F WCI  28
VIROQUA        SUNNY     32  25  74 SW12      30.09F WCI  23
BOSCOBEL       SUNNY     35  26  69 SW7       30.14F WCI  29
PRAIRIE DU CHI PTSUNNY   33  24  69 SW8       30.14F WCI  27
PLATTEVILLE    CLOUDY    32  29  88 SW8       30.14F WCI  25
$$

WIZ056-057-062-063-064-067-068-062100-
SOUTH CENTRAL WISCONSIN

CITY           SKY/WX    TMP DP  RH WIND       PRES   REMARKS
REEDSBURG      CLOUDY    32  26  76 SW8       30.11F WCI  25
BARABOO/DELLS  CLOUDY    32  24  72 SW10G16   30.10F WCI  24
LONE ROCK      NOT AVBL
MINERAL POINT  CLOUDY    32  30  93 SW12      30.12F WCI  23
MADISON        PTSUNNY   31  25  78 VRB6      30.12F WCI  25
MIDDLETON      CLOUDY    34  26  74 SW12      30.13F WCI  25
WATERTOWN      CLOUDY    31  27  83 SW7       30.13F WCI  25
MONROE         CLOUDY    32  28  86 SW12      30.13F WCI  23
JANESVILLE     CLOUDY    36  28  75 W7        30.15F WCI  30
$$

WIZ051-052-058>065-066-070>072-062100-
SOUTHEAST WISCONSIN

CITY           SKY/WX    TMP DP  RH WIND       PRES   REMARKS
MILWAUKEE      CLOUDY    33  25  72 SW14      30.14F WCI  23
WAUKESHA       CLOUDY    30  25  80 SW16      30.14F FOG     WCI  19
MILWAUKEE/TIMM CLOUDY    32  25  74 SW15      30.14F WCI  22
RACINE         CLOUDY    33  26  75 W13G18    30.16F WCI  24
BURLINGTON     CLOUDY    31  26  82 W13G20    30.15F WCI  21
KENOSHA        CLOUDY    34  27  75 W10       30.15F WCI  26
FOND DU LAC    CLOUDY    32  24  72 SW13      30.11F WCI  22
SHEBOYGAN      CLOUDY    31  24  75 W13       30.11F WCI  21
WEST BEND      CLOUDY    32  27  80 SW8       30.11F WCI  25
JUNEAU         CLOUDY    30  25  79 SW15      30.13F WCI  19
$$

LSZ147-162-062100-
LAKE SUPERIOR

STATION/POSITION TIME  TEMP    WIND        PRES    WAVE
                       AIR SEA DIR/SP/G            HT/PER
                 (UTC) (F)     (DEG/KT/KT) (MB)    (FT/S)
DEVILS ISLAND    1900   28     180/ 10/ 13 1015.0F
SAXON HARBOR     1940   35                 1013.2F
$$

LMZ867-665-643>646-062100-
LAKE MICHIGAN

STATION/POSITION TIME  TEMP    WIND        PRES    WAVE
                       AIR SEA DIR/SP/G            HT/PER
                 (UTC) (F)     (DEG/KT/KT) (MB)    (FT/S)
CHAMBERS ISLAND  1900   28     220/  7/ 12 1018.3F
ALGOMA LAKESHORE 1811          280/ 10/ 15   N/A
KEWAUNEE LAKESHO 1900   29     260/ 10/ 18 1018.7F
SHEBOYGAN LAKESH 1900   31     230/ 12/ 14 1021.1F
PORT WASHINGTON  1900   33     250/  8/ 16 1021.3
MILWAUKEE LAKESH 1910   33     260/ 12/ 17   N/A
KENOSHA   LAKESH 1900   33     260/ 14/ 18 1021.3F
$$

TC  - TEMPERATURE IN CELSIUS
VSB - VISIBILITY IN STATUTE MILES
WCI - WIND CHILL INDEX
HX  - HEAT INDEX




USA.gov is the U.S. government's official web portal to all federal, state and local government web resources and services.